Regional Weather Roundup
Issued by NWS

Home | Current Version | Previous Version | Graphics & Text | Print | Product List | Glossary On
Versions: 1 2 3 4 5 6 7 8 9 10 11 12 13 14 15 16 17 18 19 20 21 22 23 24 25 26 27 28 29 30 31 32 33 34 35 36 37 38 39 40 41 42 43 44 45 46 47 48 49 50
000
ASUS45 KCYS 282110
RWRWY

WYOMING REGIONAL WEATHER ROUNDUP
NATIONAL WEATHER SERVICE CHEYENNE WY
300 PM MDT SUN MAY 28 2017

NOTE:  "FAIR" INDICATES FEW OR NO CLOUDS BELOW 12,000 FEET
WITH NO SIGNIFICANT WEATHER AND/OR OBSTRUCTIONS TO VISIBILITY.

WYZ001-282200-
YELLOWSTONE NATIONAL PARK

CITY           SKY/WX    TMP DP  RH WIND       PRES   REMARKS
LK YELLOWSTONE   N/A     50  36  58 CALM      30.38F
W YELLOWSTONE  NOT AVBL

$$
WYZ002>013-054>058-071-098>099-282200-
NORTHERN WYOMING

CITY           SKY/WX    TMP DP  RH WIND       PRES   REMARKS
JACKSON        MOSUNNY   64  30  27 S6        30.30F
CODY           FAIR      67  36  31 VRB5      30.26R
GREYBULL       PTSUNNY   77  30  17 N23G32    30.14F
WORLAND        FAIR      75  35  23 NW12G25   30.17F
SHERIDAN       PTSUNNY   61  42  49 N18G39    30.20R
BUFFALO        FAIR      69  35  28 N29G38    30.20F
GILLETTE       FAIR      71  39  31 NW22G33   30.13F
HULETT         MOCLDY    68  36  30 NW15G24   30.10F
NEWCASTLE      LGT RAIN  55  43  62 NW5       30.14R

$$
WYZ014>020-022>026-101>103-282200-
CENTRAL WYOMING

CITY           SKY/WX    TMP DP  RH WIND       PRES   REMARKS
BIG PINEY      FAIR      64  26  23 N3        30.33F
PINEDALE       FAIR      63  23  22 NW8G17    30.33F
DUBOIS         FAIR      61  25  25 N12       30.30F
LANDER         FAIR      69  36  29 MISG      30.23F
RIVERTON       FAIR      69  25  19 CALM      30.23F
CASPER         FAIR      64  42  44 NE14      30.24R
DOUGLAS        CLOUDY    59  39  47 N24G32    30.25R

$$
WYZ021-027>030-104>119-282200-
SOUTHERN WYOMING

CITY           SKY/WX    TMP DP  RH WIND       PRES   REMARKS
EVANSTON       FAIR      64  31  28 CALM      30.32F
KEMMERER         N/A     63  25  23 SW5       30.35S
FORT BRIDGER   FAIR      67  28  22 N6        30.35F
ROCK SPRINGS   PTSUNNY   65  24  21 W8        30.31F
DIXON            N/A     65  27  23 W3        30.32F
RAWLINS        PTSUNNY   64  25  22 W14       30.30F
SARATOGA       MOCLDY    63  27  25 NW9       30.32F
LARAMIE        FAIR      63  27  25 NW16G26   30.29F
CHEYENNE       FAIR      62  32  32 N21G33    30.25S
TORRINGTON     FAIR      72  35  25 NW12      30.13F
PINE BLUFFS    CLOUDY    63  32  31 NW14G23   30.22S

$$



USA.gov is the U.S. government's official web portal to all federal, state and local government web resources and services.